一网星座-0500星 (ONEWEB-0500 )

导读 | 星芒AI

ONEWE-0500 是 OneWeb 卫星通信星座计划中的一颗低轨通信卫星,旨在为全球提供高速互联网服务。该卫星由空中客车防务与航天公司制造,采用标准化设计以降低发射和运营成本。它运行在约 1200 公里的近地轨道,支持宽带接入,特别服务于偏远和网络基础设施薄弱的地区。ONEWE-0500 是 OneWeb 扩展其全球覆盖能力的重要组成部分,助力实现数字包容与全球互联。

基本信息
目录编号:
54118
目录名称:
ONEWEB-0500
国际标识:
2022-138F
轨道中心:
EARTH
卫星名称:
一网星座-0500星
卫星全名:
一网星座-0500星 (ONEWEB-0500 )
卫星状态:
在轨 (已飞行1104 天)
发射日期:
2022-10-22 UTC
国别 :
英国 (GB)
星等 :
--
轨道信息
数据来源 国际轨道数据
星历时间: 2025-10-30T05:08:01+0800
8小时前
查看轨道信息
半长轴: 7563.909km
偏心率: 0.0001937
轨道倾角: 87.924°
近地点辐角 96.156°
升交点赤经 350.784°
平近点角 263.979°
近地点: 1184.308km
远地点: 1187.24km
周期: 109.114分钟
每日圈数: 13.197247
详细信息
平衡模式:
三轴稳定
覆盖范围:
全球
运营商:
一网卫星公司
运营商所在国:
英国
制造商(研发单位):
一网卫星公司
制造商所在国:
英国
使用方式:
暂无
卫星简介
OneWeb卫星网络由648颗重约125公斤的微型卫星组成,运行在1200公里的轨道上。 每颗卫星都能够提供至少每秒8千兆位的吞吐量,以使用其高吞吐量的Ku频段有效载荷为家庭和移动平台提供互联网接入。该卫星仍在工作。
2D轨道图
3D轨道图
轨道高度分析图
轨道倾角分析图
轨道综合分析图
查看轨道综合分析图